Date String (YYYY-MM-DD hh:mm:ss) UTC,Instrument flags,Ambient pressure (hPa),Sample flow (lpm),Bypass flow (lpm),Sample temperature (°C),Ambient temperature (°C),ASC tube jacket temperature (°C),LED temperature (°C),Box temperature (°C),Sample RH (%),Span deviation,Mass concentration (μg/m³),Mass concentration (μg/m³),Mass concentration (μg/m³)
DateTimeUTC,F1_M11,P_M11,Q1_M11,Q2_M11,T1_M11,T2_M11,T3_M11,T4_M11,T5_M11,U1_M11,ZSPAN_M11,X0_M11,X2_M11,X1_M11
2022-06-30 05:00:00,,0831.2,5.01,0.00,29.4,28.5,00.0,38.1,31.4,32.6,0000.0,0011.00,0004.27,0003.33
2022-06-30 05:01:00,,0831.2,5.00,0.00,29.4,28.4,00.0,38.1,31.3,32.5,0000.0,0011.41,0004.26,0003.32
2022-06-30 05:02:00,,0831.1,4.99,0.00,29.4,27.8,00.0,38.1,31.2,32.4,0000.0,0011.41,0004.24,0003.30
2022-06-30 05:03:00,,0831.1,4.99,0.00,29.3,27.3,00.0,38.0,31.0,32.3,0000.0,0010.54,0004.18,0003.29
2022-06-30 05:04:00,,0831.0,5.00,0.00,29.3,27.1,00.0,38.0,30.9,32.6,0000.0,0009.98,0004.13,0003.28
2022-06-30 05:05:00,,0831.0,5.00,0.00,29.2,27.1,00.0,38.0,30.9,32.6,0000.0,0009.78,0004.13,0003.27
2022-06-30 05:06:00,,0831.0,5.00,0.00,29.2,27.2,00.0,38.0,30.9,32.5,0000.0,0009.29,0004.13,0003.27
2022-06-30 05:07:00,,0831.0,5.01,0.00,29.1,27.3,00.0,38.0,31.0,32.5,0000.0,0009.23,0004.08,0003.25
2022-06-30 05:08:00,,0831.0,5.00,0.00,29.1,27.5,00.0,38.0,31.0,32.5,0000.0,0009.02,0004.03,0003.25
2022-06-30 05:09:00,,0831.1,4.99,0.00,29.1,27.6,00.0,38.0,31.0,32.5,0000.0,0009.10,0004.04,0003.27
2022-06-30 05:10:00,,0831.1,5.01,0.00,29.1,27.7,00.0,38.0,31.0,32.6,0000.0,0009.33,0004.04,0003.28
2022-06-30 05:11:00,,0831.0,5.00,0.00,29.2,27.9,00.0,38.0,31.1,33.0,0000.0,0010.49,0004.07,0003.28
2022-06-30 05:12:00,,0831.0,5.01,0.00,29.2,28.0,00.0,38.0,31.1,33.3,0000.0,0010.75,0004.10,0003.29
2022-06-30 05:13:00,,0830.9,5.00,0.00,29.2,28.0,00.0,38.0,31.1,33.4,0000.0,0010.50,0004.08,0003.30
2022-06-30 05:14:00,,0830.9,5.00,0.00,29.2,28.1,00.0,38.0,31.2,33.2,0000.0,0010.41,0004.07,0003.31
2022-06-30 05:15:00,,0831.0,5.00,0.00,29.2,28.2,00.0,38.0,31.2,33.1,0000.0,0010.74,0004.07,0003.31
2022-06-30 05:16:00,,0831.0,5.00,0.00,29.3,28.3,00.0,38.0,31.2,33.1,0000.0,0011.09,0004.09,0003.32
2022-06-30 05:17:00,,0831.0,4.99,0.00,29.3,28.3,00.0,38.1,31.2,33.1,0000.0,0011.17,0004.08,0003.33
2022-06-30 05:18:00,,0831.0,5.00,0.00,29.3,28.4,00.0,38.1,31.3,32.9,0000.0,0012.09,0004.11,0003.34
2022-06-30 05:19:00,,0831.0,5.00,0.00,29.3,28.4,00.0,38.1,31.3,33.0,0000.0,0012.39,0004.17,0003.35
2022-06-30 05:20:00,,0831.0,5.00,0.00,29.4,28.5,00.0,38.1,31.3,33.0,0000.0,0012.39,0004.20,0003.36
2022-06-30 05:21:00,,0831.0,4.99,0.00,29.4,28.5,00.0,38.1,31.4,32.9,0000.0,0012.28,0004.25,0003.37
2022-06-30 05:22:00,,0831.1,4.99,0.00,29.4,28.5,00.0,38.1,31.4,32.8,0000.0,0010.99,0004.21,0003.37
2022-06-30 05:23:00,,0831.0,4.99,0.00,29.4,28.6,00.0,38.2,31.4,32.7,0000.0,0010.40,0004.23,0003.38
2022-06-30 05:24:00,,0830.9,4.99,0.00,29.4,28.2,00.0,38.1,31.3,32.8,0000.0,0010.68,0004.31,0003.40
2022-06-30 05:25:00,,0830.9,5.00,0.00,29.4,27.5,00.0,38.1,31.1,33.0,0000.0,0011.16,0004.36,0003.41
2022-06-30 05:26:00,,0830.9,5.01,0.00,29.3,27.2,00.0,38.1,31.0,33.0,0000.0,0011.22,0004.37,0003.42
2022-06-30 05:27:00,,0830.9,4.99,0.00,29.2,27.2,00.0,38.1,31.0,33.1,0000.0,0011.00,0004.34,0003.42
2022-06-30 05:28:00,,0830.9,5.01,0.00,29.2,27.2,00.0,38.1,31.0,33.3,0000.0,0010.90,0004.38,0003.43
2022-06-30 05:29:00,,0830.9,5.00,0.00,29.2,27.3,00.0,38.0,31.0,33.3,0000.0,0010.05,0004.39,0003.42
2022-06-30 05:30:00,,0830.8,5.02,0.00,29.2,27.5,00.0,38.0,31.0,33.1,0000.0,0010.32,0004.39,0003.42
2022-06-30 05:31:00,,0830.8,4.99,0.00,29.2,27.6,00.0,38.0,31.0,33.2,0000.0,0011.35,0004.39,0003.43
2022-06-30 05:32:00,,0830.8,5.00,0.00,29.2,27.7,00.0,38.0,31.0,33.1,0000.0,0011.25,0004.37,0003.43
2022-06-30 05:33:00,,0830.8,5.00,0.00,29.2,27.8,00.0,38.0,31.1,33.1,0000.0,0011.49,0004.41,0003.42
2022-06-30 05:34:00,,0830.8,5.00,0.00,29.2,27.9,00.0,38.0,31.1,33.1,0000.0,0011.70,0004.45,0003.42
2022-06-30 05:35:00,,0830.8,5.00,0.00,29.2,28.0,00.0,38.0,31.1,33.1,0000.0,0011.59,0004.42,0003.41
2022-06-30 05:36:00,,0830.7,5.00,0.00,29.2,28.1,00.0,38.0,31.1,33.3,0000.0,0011.54,0004.40,0003.41
2022-06-30 05:37:00,,0830.8,5.01,0.00,29.2,28.1,00.0,38.1,31.2,33.4,0000.0,0011.43,0004.38,0003.41
2022-06-30 05:38:00,,0830.8,4.99,0.00,29.3,28.2,00.0,38.1,31.2,33.5,0000.0,0011.12,0004.40,0003.41
2022-06-30 05:39:00,,0830.9,4.99,0.00,29.3,28.3,00.0,38.1,31.2,33.8,0000.0,0011.10,0004.39,0003.42
2022-06-30 05:40:00,,0830.9,5.00,0.00,29.3,28.3,00.0,38.1,31.2,33.7,0000.0,0011.12,0004.39,0003.44
2022-06-30 05:41:00,,0830.9,5.00,0.00,29.3,28.3,00.0,38.1,31.2,33.4,0000.0,0010.89,0004.39,0003.46
2022-06-30 05:42:00,,0830.9,4.99,0.00,29.3,28.4,00.0,38.1,31.3,33.3,0000.0,0009.78,0004.42,0003.47
2022-06-30 05:43:00,,0831.0,5.01,0.00,29.3,28.4,00.0,38.1,31.3,33.4,0000.0,0009.69,0004.45,0003.48
2022-06-30 05:44:00,,0830.9,5.00,0.00,29.4,28.4,00.0,38.1,31.3,33.3,0000.0,0009.95,0004.46,0003.49
2022-06-30 05:45:00,,0830.9,5.00,0.00,29.4,28.5,00.0,38.2,31.3,33.4,0000.0,0010.18,0004.41,0003.50
2022-06-30 05:46:00,,0830.9,5.00,0.00,29.4,28.5,00.0,38.2,31.3,33.5,0000.0,0010.14,0004.38,0003.51
2022-06-30 05:47:00,,0830.9,5.00,0.00,29.4,28.5,00.0,38.2,31.3,33.5,0000.0,0010.25,0004.43,0003.52
2022-06-30 05:48:00,,0830.9,5.00,0.00,29.4,28.6,00.0,38.2,31.4,33.5,0000.0,0010.00,0004.50,0003.53
2022-06-30 05:49:00,,0830.8,5.00,0.00,29.5,28.5,00.0,38.2,31.4,33.4,0000.0,0010.05,0004.53,0003.55
2022-06-30 05:50:00,,0830.8,5.00,0.00,29.4,27.9,00.0,38.2,31.2,33.4,0000.0,0010.21,0004.56,0003.56
2022-06-30 05:51:00,,0830.8,5.01,0.00,29.4,27.3,00.0,38.1,31.1,33.4,0000.0,0011.15,0004.58,0003.56
2022-06-30 05:52:00,,0830.8,5.00,0.00,29.3,27.1,00.0,38.1,31.0,33.6,0000.0,0011.66,0004.66,0003.57
2022-06-30 05:53:00,,0830.8,5.01,0.00,29.2,27.1,00.0,38.1,31.0,33.7,0000.0,0012.75,0004.74,0003.58
2022-06-30 05:54:00,,0830.8,5.00,0.00,29.2,27.2,00.0,38.1,31.0,33.7,0000.0,0012.85,0004.76,0003.60
2022-06-30 05:55:00,,0830.8,5.00,0.00,29.2,27.4,00.0,38.1,31.0,33.8,0000.0,0012.65,0004.81,0003.62
2022-06-30 05:56:00,,0830.7,5.00,0.00,29.2,27.5,00.0,38.1,31.0,33.9,0000.0,0012.16,0004.87,0003.63
2022-06-30 05:57:00,,0830.7,5.00,0.00,29.2,27.6,00.0,38.1,31.0,33.7,0000.0,0012.16,0004.91,0003.65
2022-06-30 05:58:00,,0830.7,5.01,0.00,29.2,27.8,00.0,38.1,31.1,33.8,0000.0,0011.94,0004.90,0003.68
2022-06-30 05:59:00,,0830.7,5.00,0.00,29.2,27.9,00.0,38.1,31.1,33.6,0000.0,0011.78,0004.89,0003.69
